FW0311 Weather Reports


time (UTC)temp
C
wind
direction
speed
KPH
gust
KPH
rain 1hr
cm
rain 24hr
cm
rain mn
cm
humidity
%
barometer
mb
20260504044512 7 232 0.0 4.8 0.00 0.00 0.00 66 1015.2
20260504043001 7 232 0.0 3.2 0.00 0.00 0.00 64 1015.2
20260504041604 8 232 0.0 0.0 0.00 0.00 0.00 62 1015.1
20260504040055 9 232 3.2 6.4 0.00 0.00 0.00 58 1015.2
20260504034604 9 202 8.0 14.5 0.00 0.00 0.00 56 1015.1
20260504033052 9 195 3.2 8.0 0.00 0.00 0.00 57 1015.2
20260504031551 9 205 0.0 9.7 0.00 0.00 0.00 58 1015.2
20260504030050 8 190 0.0 8.0 0.00 0.00 0.00 58 1015.1
20260504024553 8 191 0.0 6.4 0.00 0.00 0.00 58 1015.3
20260504023050 9 190 1.6 6.4 0.00 0.00 0.00 58 1015.3
20260504021552 9 190 0.0 3.2 0.00 0.00 0.00 57 1015.2
20260504020056 9 190 4.8 11.3 0.00 0.00 0.00 57 1015.2
20260504014547 10 193 1.6 6.4 0.00 0.00 0.00 56 1015.2
20260504013105 10 193 1.6 8.0 0.00 0.00 0.00 55 1015.1
20260504011546 10 196 3.2 8.0 0.00 0.00 0.00 54 1015.0
20260504010046 10 199 3.2 9.7 0.00 0.00 0.00 53 1015.0
20260504004546 11 192 1.6 11.3 0.00 0.00 0.00 52 1015.1
20260504003045 11 238 3.2 11.3 0.00 0.00 0.00 50 1014.9
20260504001547 11 229 4.8 12.9 0.00 0.00 0.00 49 1014.8
20260504000044 12 254 6.4 19.3 0.00 0.00 0.00 48 1014.7
20260503234544 12 217 6.4 19.3 0.00 0.00 0.00 47 1014.7
20260503233044 13 247 1.6 16.1 0.00 0.00 0.00 45 1014.8
20260503231542 13 269 4.8 14.5 0.00 0.00 0.00 45 1014.9
20260503230043 13 280 6.4 16.1 0.00 0.00 0.00 45 1014.8
20260503224541 13 299 11.3 22.5 0.00 0.00 0.00 44 1014.7
20260503223039 13 233 6.4 17.7 0.00 0.00 0.00 44 1014.7
20260503221546 13 249 11.3 32.2 0.00 0.00 0.00 44 1014.9
20260503220039 12 271 4.8 16.1 0.00 0.00 0.00 46 1014.9
20260503214541 12 286 9.7 24.1 0.00 0.00 0.00 45 1015.0
20260503213043 13 288 4.8 16.1 0.00 0.00 0.00 45 1015.0
20260503211537 13 300 8.0 24.1 0.00 0.00 0.00 44 1015.0
20260503210035 13 271 4.8 24.1 0.00 0.00 0.00 45 1015.0
20260503204533 13 260 8.0 24.1 0.00 0.00 0.00 45 1015.0
20260503203036 13 254 3.2 20.9 0.00 0.00 0.00 45 1015.1
20260503201529 13 268 8.0 29.0 0.00 0.00 0.00 44 1015.4
20260503200029 12 226 12.9 29.0 0.00 0.00 0.00 44 1015.5
20260503194525 13 299 6.4 22.5 0.00 0.00 0.00 45 1015.7
20260503193035 12 244 12.9 27.4 0.00 0.00 0.00 45 1015.9
20260503191542 12 323 11.3 20.9 0.00 0.00 0.00 46 1016.1
20260503190026 12 289 9.7 24.1 0.00 0.00 0.00 47 1016.3
20260503184514 12 325 11.3 25.7 0.00 0.00 0.00 47 1016.5
20260503183013 12 281 12.9 32.2 0.00 0.00 0.00 46 1016.5
20260503181511 12 304 12.9 35.4 0.00 0.00 0.00 47 1016.6
20260503180012 12 317 6.4 32.2 0.00 0.00 0.00 48 1016.6
20260503174508 11 286 9.7 30.6 0.00 0.00 0.00 49 1016.6
20260503173009 11 290 17.7 30.6 0.00 0.00 0.00 47 1016.9
20260503171507 11 326 14.5 27.4 0.00 0.00 0.00 48 1017.1
20260503160107 9 215 8.0 22.5 0.00 0.00 0.00 54 1017.8
20260503081551 1 291 0.0 6.4 0.00 0.00 0.00 83 1016.8
20260503071544 2 292 0.0 3.2 0.00 0.00 0.00 80 1016.6
20260503054543 2 292 0.0 4.8 0.00 0.00 0.00 76 1016.5
20260503053029 3 292 1.6 6.4 0.00 0.00 0.00 76 1016.6
20260503051521 3 293 1.6 4.8 0.00 0.00 0.00 75 1016.7
20260503050018 3 293 1.6 6.4 0.00 0.00 0.00 74 1016.6